Content
SEND FEEDBACK

Daily
Averages
Monthly
Summary
United States of America

INARAJAN, GUAM


Home > North America > United States > Guam
Elevation: 85 meters     Latitude: 13 18N     Longitude: 144 44E

WEATHER
 
SELECT A DAY
Number of Records: 356,513;   Date Range: 1/1/95 - 12/18/14
 
SHARE

PRINT THIS DATA

[ ← Previous Day ]
WEATHER ALMANAC - 8 APRIL, 2013
[ Next Day → ]
[ °F ]   °C
Weather ElementAverageHighLow
Temperature26.2 °C29.1 °C (1:55 pm)24.6 °C (3:55 am)
Dewpoint22.2 °C23 °C (1:10 am)20.8 °C (8:55 pm)
Humidity78.8 %89 % (1:10 am)66 % (10:56 am)
Barometer1010.8 hPa1012.2 hPa (8:47 am)1008.8 hPa (3:55 pm)
Wind Speed14.2 km/h22.2 km/h (7:56 pm)
Weather ElementAverage
Visibility15.9 km
Wind DirectionENE (82.5 °)

Weather ElementTotal
Precipitation---
Cooling Degree Days8.6 (Base 18.3)
Growing Degree Days16.9 (Base 10)
Averaged from 65 records on 8 April, 2013
WEATHER CONDITIONS BREAKOUT
WIND DIRECTION BREAKOUT
WEATHER BY HOUR - 8 APRIL, 2013
[ °F ]   °C
Local TimeTemperatureDewpointHumidityBarometerVisibilityWind DirectionWind SpeedGust SpeedPrecipitationEventsConditions
12:54 AM25 °C22 °C83 %1010.2 hPa16.1 kmEast (80°)16.7 km/hScattered Clouds
12:55 AM25.3 °C22.2 °C83 %1010.2 hPa16.1 kmEast (80°)16.7 km/hScattered Clouds
12:56 AM25 °C22 °C83 %1010.2 hPa16.1 kmEast (90°)16.7 km/hMostly Cloudy
1:07 AM25 °C22 °C83 %1010.2 hPa16.1 kmENE (70°)14.8 km/hMostly Cloudy
1:08 AM25 °C22 °C83 %1010.2 hPa16.1 kmEast (80°)13 km/hMostly Cloudy
1:10 AM25 °C23 °C89 %1010.2 hPa16.1 kmEast (80°)9.3 km/hScattered Clouds
1:11 AM25 °C23 °C89 %1010.2 hPa16.1 kmEast (80°)11.1 km/hMostly Cloudy
1:27 AM25 °C22 °C83 %1009.8 hPa16.1 kmEast (100°)14.8 km/hScattered Clouds
1:55 AM25.2 °C22.4 °C84 %1009.5 hPa16.1 kmEast (80°)11.1 km/hScattered Clouds
1:57 AM25 °C22 °C83 %1009.8 hPa16.1 kmENE (70°)13 km/hMostly Cloudy
2:21 AM25 °C22 °C83 %1009.5 hPa16.1 kmEast (80°)11.1 km/hScattered Clouds
2:35 AM25 °C23 °C89 %1009.1 hPa16.1 kmEast (90°)7.4 km/hMostly Cloudy
2:39 AM25 °C23 °C89 %1009.5 hPa16.1 kmEast (90°)9.3 km/hMostly Cloudy
2:41 AM25 °C23 °C89 %1009.1 hPa16.1 kmEast (90°)7.4 km/hMostly Cloudy
2:55 AM25.3 °C22.3 °C83 %1009.1 hPa16.1 kmEast (90°)13 km/hMostly Cloudy
3:01 AM25 °C22 °C83 %1009.1 hPa16.1 kmEast (90°)11.1 km/hScattered Clouds
3:55 AM24.6 °C22.2 °C86 %1009.1 hPa16.1 kmEast (80°)9.3 km/hPartly Cloudy
4:55 AM25.2 °C22.3 °C84 %1009.5 hPa16.1 kmESE (110°)7.4 km/hMostly Cloudy
4:56 AM25 °C22 °C83 %1009.5 hPa16.1 kmESE (110°)7.4 km/hMostly Cloudy
4:57 AM25 °C22 °C83 %1009.5 hPa16.1 kmESE (120°)7.4 km/hLight Drizzle
5:07 AM25 °C22 °C83 %1009.5 hPa16.1 kmEast (90°)11.1 km/hMostly Cloudy
5:55 AM24.8 °C22 °C84 %1010.2 hPa16.1 kmEast (90°)11.1 km/h0 mmPartly Cloudy
6:34 AM25 °C22 °C83 %1010.5 hPa16.1 kmEast (100°)11.1 km/hRainLight Rain
6:43 AM25 °C22 °C83 %1010.8 hPa16.1 kmEast (90°)13 km/hPartly Cloudy
6:55 AM25.6 °C22 °C80 %1010.8 hPa16.1 kmEast (80°)13 km/h0 mmPartly Cloudy
7:55 AM26.9 °C22.3 °C76 %1011.5 hPa16.1 kmENE (70°)13 km/hClear
8:15 AM26 °C23 °C83 %1011.9 hPa14.5 kmEast (100°)20.4 km/hRainLight Rain
8:16 AM26 °C23 °C83 %1011.9 hPa12.9 kmEast (100°)16.7 km/hRainLight Rain
8:28 AM25 °C23 °C89 %1011.9 hPa14.5 kmESE (120°)11.1 km/hMostly Cloudy
8:38 AM26 °C23 °C83 %1011.9 hPa16.1 kmEast (100°)9.3 km/hMostly Cloudy
8:47 AM26 °C23 °C83 %1012.2 hPa16.1 kmENE (70°)7.4 km/hMostly Cloudy
8:48 AM26 °C23 °C83 %1012.2 hPa16.1 kmVariable7.4 km/hLight Drizzle
8:55 AM26.2 °C22.9 °C82 %1012.2 hPa16.1 kmEast (90°)11.1 km/h0 mmLight Drizzle
8:58 AM26 °C23 °C83 %1012.2 hPa16.1 kmESE (110°)14.8 km/hMostly Cloudy
9:12 AM27 °C22 °C74 %1012.2 hPa16.1 kmEast (100°)16.7 km/hMostly Cloudy
9:13 AM27 °C22 °C74 %1012.2 hPa16.1 kmEast (80°)18.5 km/hMostly Cloudy
9:16 AM27 °C22 °C74 %1012.2 hPa16.1 kmEast (90°)14.8 km/hMostly Cloudy
9:17 AM27 °C22 °C74 %1012.2 hPa16.1 kmEast (100°)13 km/hMostly Cloudy
9:32 AM27 °C22 °C74 %1012.2 hPa16.1 kmEast (100°)13 km/hScattered Clouds
9:55 AM28.1 °C22.1 °C70 %1012.2 hPa16.1 kmESE (120°)16.7 km/h0 mmPartly Cloudy
10:55 AM28.6 °C22.4 °C69 %1011.9 hPa16.1 kmEast (100°)16.7 km/hScattered Clouds
10:56 AM29 °C22 °C66 %1011.9 hPa16.1 kmEast (100°)14.8 km/hMostly Cloudy
10:58 AM28 °C23 °C74 %1011.9 hPa16.1 kmEast (90°)13 km/hScattered Clouds
11:04 AM28 °C23 °C74 %1011.5 hPa16.1 kmEast (100°)13 km/hMostly Cloudy
11:55 AM28.9 °C22.5 °C68 %1011.2 hPa16.1 kmEast (90°)16.7 km/hMostly Cloudy
11:56 AM29 °C23 °C70 %1011.2 hPa16.1 kmEast (90°)16.7 km/hMostly Cloudy
12:15 PM29 °C22 °C66 %1011.2 hPa16.1 kmENE (60°)16.7 km/hMostly Cloudy
12:55 PM28.7 °C21.9 °C66 %1010.5 hPa16.1 kmENE (70°)16.7 km/hMostly Cloudy
1:55 PM29.1 °C22.4 °C67 %1009.8 hPa16.1 kmENE (60°)14.8 km/hPartly Cloudy
2:55 PM28.6 °C22 °C67 %1009.1 hPa16.1 kmEast (80°)16.7 km/hPartly Cloudy
3:55 PM27.6 °C22.3 °C73 %1008.8 hPa16.1 kmENE (70°)16.7 km/hScattered Clouds
4:55 PM26.9 °C21.7 °C73 %1009.5 hPa16.1 kmENE (70°)13 km/hPartly Cloudy
5:14 PM28 °C22 °C70 %1009.5 hPa16.1 kmENE (70°)16.7 km/hMostly Cloudy
5:17 PM27 °C22 °C74 %1009.5 hPa16.1 kmENE (70°)14.8 km/hScattered Clouds
5:55 PM26.7 °C22.1 °C76 %1009.5 hPa16.1 kmENE (60°)16.7 km/hScattered Clouds
6:55 PM25.9 °C22 °C79 %1010.2 hPa16.1 kmENE (60°)20.4 km/hScattered Clouds
7:10 PM26 °C22 °C78 %1010.5 hPa16.1 kmENE (60°)16.7 km/hMostly Cloudy
7:26 PM26 °C22 °C78 %1010.5 hPa16.1 kmENE (60°)16.7 km/hMostly Cloudy
7:55 PM26.1 °C21.5 °C76 %1011.2 hPa16.1 kmENE (60°)20.4 km/hMostly Cloudy
7:56 PM26 °C22 °C78 %1011.2 hPa16.1 kmENE (60°)22.2 km/hMostly Cloudy
8:11 PM26 °C21 °C74 %1011.2 hPa16.1 kmENE (60°)20.4 km/hMostly Cloudy
8:55 PM25.3 °C20.8 °C76 %1011.5 hPa16.1 kmENE (60°)20.4 km/hClear
9:55 PM25.3 °C20.8 °C76 %1012.2 hPa16.1 kmENE (70°)18.5 km/hPartly Cloudy
10:55 PM25 °C21.3 °C80 %1011.9 hPa16.1 kmENE (70°)22.2 km/hPartly Cloudy
11:55 PM25.1 °C21.1 °C78 %1011.9 hPa16.1 kmENE (60°)16.7 km/hPartly Cloudy
Hourly data recorded from PGUA, located 0 kilometers away from Inarajan, Guam







STORIES FROM OUR PARTNERS